Lapse_Rate
1.9 1.3 1.5 2.0 2.3 2.5 3.5 3.0 2.5 1.8 1.7 2.2 2.7 3.1 3.1 3.5 3.6 4.0 4.4 4.9 6.6 6.7 6.1 6.5 6.5 7.3 6.4 7.0 7.8 7.6 7.5 7.6 8.2 7.6 6.2 5.0 5.0 5.1 5.3 4.6 4.2 4.2 4.3
1.5 1.6 1.7 2.0 2.1 2.5 2.3 2.8 2.1 1.8 1.8 2.0 2.2 3.0 3.2 3.7 4.0 3.7 3.8 4.3 5.7 6.2 6.5 6.7 7.3 7.6 6.6 6.8 7.3 7.5 7.8 8.1 7.9 7.8 6.2 5.5 5.6 4.7 4.5 4.0 4.1 4.2 4.1
1.2 1.5 2.0 2.1 2.3 2.4 2.3 2.1 2.0 2.0 1.9 2.0 2.5 2.8 3.3 3.5 3.6 3.7 4.1 4.8 5.1 5.6 6.1 6.8 7.2 7.5 7.1 6.9 6.9 7.7 8.0 8.1 7.2 7.4 6.9 6.0 5.7 4.1 3.8 3.9 4.2 4.0 4.4
1.2 1.2 2.2 2.1 2.4 2.5 2.5 2.3 2.7 2.8 2.1 2.3 2.2 2.4 2.8 3.4 3.6 3.7 4.1 4.4 5.0 5.1 4.8 5.7 6.9 7.1 7.2 7.2 7.5 7.9 8.0 8.5 7.6 7.4 7.4 6.7 6.3 4.0 3.6 3.8 4.2 4.3 4.2
1.4 1.2 1.9 1.9 2.2 3.1 3.1 3.1 3.3 3.6 3.2 3.2 3.3 2.5 3.1 3.3 3.7 4.1 4.4 4.7 5.0 4.9 4.9 5.9 6.8 6.9 7.1 7.2 7.4 8.1 8.1 8.3 7.8 7.4 7.3 6.7 6.2 4.5 3.7 3.8 3.9 4.0 4.1
1.3 1.2 1.4 1.7 2.5 3.5 4.1 3.8 4.0 3.7 3.7 3.8 4.1 4.0 4.1 4.3 4.4 4.4 5.1 5.2 4.9 4.5 4.6 5.4 5.8 6.2 7.1 7.1 7.3 7.9 7.8 8.5 8.3 7.7 7.5 7.2 6.0 5.9 4.1 3.7 3.7 3.8 3.9
1.5 1.2 1.5 1.8 2.8 4.2 4.1 4.3 4.3 3.8 4.0 4.0 4.0 4.5 4.6 4.5 4.9 5.6 5.2 5.1 4.7 4.1 4.2 4.8 5.0 5.4 6.1 7.2 7.0 7.6 7.9 7.8 8.5 7.9 7.6 7.4 7.1 5.0 4.3 4.0 3.9 3.8 3.8
1.7 1.6 1.6 1.7 2.8 4.5 4.1 4.7 4.5 4.4 4.2 4.1 4.7 4.8 5.4 4.9 5.0 5.2 5.3 4.9 4.9 4.2 4.4 4.3 4.6 4.9 5.5 6.0 6.7 7.2 7.9 7.8 8.4 7.8 7.5 7.3 6.8 4.9 5.0 4.1 4.2 4.1 3.9
2.0 2.0 1.7 1.7 2.3 3.7 4.1 4.9 5.0 4.6 4.6 4.2 4.5 5.1 5.3 6.0 6.0 5.2 5.2 5.2 4.5 4.2 4.7 4.6 4.6 4.7 5.1 5.4 6.1 7.0 7.4 7.6 8.3 8.1 7.9 7.6 7.7 5.7 4.8 4.2 4.3 4.4 4.2
1.7 2.0 1.8 1.8 2.2 3.1 4.2 4.9 4.6 4.8 4.6 4.6 4.6 4.5 4.8 4.8 5.8 5.5 5.5 5.0 4.6 4.8 4.3 4.3 4.6 4.6 4.9 4.7 5.1 5.7 6.3 7.1 7.7 8.3 7.9 8.0 7.8 7.5 6.5 5.4 4.6 4.5 4.5
1.8 2.1 2.1 1.8 1.8 2.9 4.4 4.5 4.7 4.6 4.4 4.8 4.8 4.5 4.9 4.9 4.9 5.2 5.7 5.4 4.8 4.4 4.6 4.3 4.5 4.5 4.6 4.5 4.5 5.0 6.0 6.4 6.7 7.1 7.2 7.6 8.1 7.9 7.2 6.2 5.5 4.9 4.8
1.2 2.1 2.4 2.3 2.1 2.1 2.3 3.1 3.9 4.7 4.6 4.5 4.7 4.3 5.3 5.2 5.5 5.5 5.5 5.2 5.3 4.6 4.5 4.5 4.3 4.5 4.3 4.1 4.5 4.8 5.3 6.1 6.4 6.6 6.8 6.9 6.9 6.9 6.9 6.5 5.7 5.7 5.2
0.8 1.4 2.1 2.8 2.4 1.7 1.5 2.3 3.7 4.0 4.1 4.1 4.7 4.9 5.0 5.3 5.5 6.0 5.6 5.9 6.0 4.3 4.3 4.1 4.5 4.8 4.7 4.3 4.6 4.9 4.8 5.6 5.8 5.8 5.9 6.1 6.2 6.0 6.2 6.0 5.9 6.0 5.8
0.7 1.2 2.2 3.1 2.5 1.8 2.6 3.5 3.6 3.5 3.5 4.0 4.0 4.2 4.7 5.0 4.4 5.3 5.7 5.4 5.5 4.8 4.4 4.7 4.4 4.6 4.7 4.6 4.6 4.6 4.4 4.8 4.9 5.3 5.4 5.3 5.3 5.7 5.9 5.8 5.5 5.5 5.6
0.9 0.3 1.9 2.5 2.2 2.6 3.8 3.5 3.5 4.0 3.6 4.1 4.9 5.1 4.7 4.5 4.1 4.4 5.0 5.3 5.7 5.3 5.9 4.5 4.6 5.2 4.7 4.8 4.4 3.8 3.8 4.5 4.5 4.1 4.2 4.8 4.6 4.9 5.3 5.7 5.7 5.5 5.2
1.0 0.5 1.9 2.5 2.0 2.6 3.7 3.5 3.5 4.2 4.2 3.9 5.1 5.1 4.9 4.2 4.5 4.3 4.3 4.4 4.2 4.4 5.2 5.1 4.6 4.1 4.1 4.8 4.5 4.0 4.1 5.1 5.1 4.8 3.6 3.0 3.1 3.8 4.4 4.6 4.9 5.1 5.1
0.7 1.0 1.7 1.9 1.8 2.6 3.3 3.2 3.8 4.1 4.4 4.6 4.3 4.5 4.7 4.8 4.6 4.6 4.3 4.3 4.7 4.3 5.3 4.9 5.3 4.3 3.5 3.7 3.4 4.1 4.1 3.6 4.4 5.3 4.7 3.3 3.2 3.2 3.4 3.5 3.9 4.0 3.9
1.1 1.5 1.9 1.7 2.4 3.0 3.3 3.7 4.1 4.0 4.5 4.8 4.8 4.8 5.0 4.5 4.6 4.6 4.7 4.7 4.5 4.2 4.8 5.0 3.6 3.4 3.7 3.5 3.8 3.5 3.7 4.4 4.6 4.9 5.1 4.4 2.7 1.9 2.1 1.9 2.0 2.4 2.3
1.5 1.7 2.1 2.3 2.8 3.1 3.6 4.0 4.2 4.2 4.5 4.7 4.7 4.4 4.8 4.7 4.8 5.2 5.0 4.9 4.6 4.6 4.5 5.0 4.6 3.5 4.1 3.3 3.3 3.2 3.6 4.0 4.6 5.1 3.2 1.9 1.2 1.1 0.7 0.4 0.1 -0.2 -0.4
2.3 2.0 2.3 2.3 4.2 3.9 3.9 4.1 4.2 4.2 4.5 4.7 4.7 4.9 5.3 4.9 4.8 5.0 4.6 4.9 4.8 4.7 4.5 4.8 4.8 4.1 4.0 3.6 4.1 4.6 4.4 3.7 3.9 1.0 -0.8 -1.2 -1.9 -2.2 -2.3 -2.3 -2.4 -2.2 -2.6
2.8 2.4 2.5 2.7 4.0 3.9 4.1 4.5 4.6 4.4 4.3 4.6 4.6 4.8 4.9 4.4 2.8 3.8 4.9 4.6 4.7 4.8 5.1 5.1 5.2 4.2 4.4 3.7 4.6 4.4 4.9 4.7 3.0 0.8 -0.3 -0.8 -1.7 -2.6 -2.9 -3.0 -3.1 -2.9 -3.1
2.2 3.7 3.2 3.6 3.8 -0.2 -3.6 0.4 3.8 4.5 4.3 4.6 4.6 4.6 4.4 2.0 1.9 0.5 1.1 1.6 3.9 4.9 5.0 4.7 4.7 4.8 4.6 4.6 4.3 4.5 4.7 4.1 4.0 0.7 -0.2 -2.2 -2.7 -3.2 -3.4 -3.5 -3.5 -3.5 -3.2
-3.5 -3.1 -2.0 -0.8 -1.8 -2.9 -3.9 -3.0 -0.9 4.5 4.5 4.6 4.4 4.3 4.3 3.4 2.2 2.7 -2.7 -3.0 -3.3 -3.4 -2.5 4.5 5.2 5.1 5.0 4.0 3.6 3.9 4.0 4.3 3.3 -1.1 -0.8 -3.2 -4.1 -4.3 -3.8 -3.1 -2.9 -3.0 -3.3
-0.2 -2.8 -3.9 -3.5 -3.2 -3.4 -3.2 -2.7 -3.1 2.1 -0.1 -1.5 -1.6 -0.9 2.3 0.8 -1.2 1.4 0.4 -1.3 -3.0 -3.4 -3.3 -2.1 -1.2 -2.4 -3.0 -2.5 -0.2 1.6 2.2 -1.7 -3.1 -4.0 -2.6 -3.0 -4.2 -3.8 -3.5 -2.7 -2.1 -2.8 -2.7
-0.1 -0.3 0.2 -3.3 -2.3 -4.0 -3.9 -3.6 -1.7 -2.1 -3.0 -4.1 -4.3 -3.8 -2.5 -1.8 -3.5 -1.6 -0.4 -2.8 -4.4 -4.8 -4.4 -4.9 -5.3 -5.5 -5.2 -5.0 -3.4 -1.1 -1.7 -0.7 -1.9 -3.3 -4.2 -3.1 -4.0 -2.9 -1.7 -0.9 -0.4 -0.1 -0.5
0.8 0.2 -0.2 -0.9 -0.7 -1.0 -2.3 -3.8 -3.7 -3.8 -4.1 -4.1 -4.7 -5.0 -4.5 -3.7 -3.3 -2.8 -1.8 -2.6 -3.7 -5.1 -5.4 -5.4 -5.7 -5.9 -6.0 -5.9 -6.0 -5.1 -3.3 -1.6 -2.7 -2.3 -3.6 -1.6 -2.4 -1.6 0.2 0.1 0.3 -0.7 0.1
Wind_Speed
7 5 4 7 8 10 10 7 7 6 6 8 9 8 7 7 9 11 12 21 23 23 24 24 23 22 21 21 20 20 19 19 18 16 17 17 15 14 13 12 12 12 11
7 6 6 6 6 11 10 9 6 5 5 6 5 7 7 8 9 8 9 12 22 24 24 26 24 22 21 22 21 21 20 18 17 16 16 17 17 15 15 13 11 11 11
9 8 6 6 6 10 10 7 4 3 4 3 5 4 6 7 7 8 8 10 15 22 24 25 23 22 22 22 23 22 22 20 15 17 16 16 18 17 15 13 11 11 10
13 7 7 7 9 9 8 5 5 4 3 4 3 4 4 5 6 8 10 11 12 14 20 27 23 22 23 23 24 23 23 21 18 18 16 16 17 17 16 14 12 11 10
14 7 7 5 11 6 6 6 5 6 5 5 4 3 3 4 4 7 9 11 13 14 14 24 25 25 24 23 24 23 22 20 19 18 18 16 16 17 16 15 14 12 11
14 8 6 7 8 6 6 6 7 6 5 5 5 5 4 4 4 5 7 11 13 14 14 15 18 19 27 24 24 23 22 21 19 19 18 18 17 16 16 16 15 14 13
13 10 7 7 8 9 9 9 6 8 5 6 3 3 3 6 7 7 6 6 7 10 13 15 15 16 19 24 23 22 22 21 20 20 19 19 18 17 17 16 16 15 15
12 10 9 8 10 8 9 10 9 4 4 7 3 2 2 2 6 7 6 6 10 10 10 13 14 15 15 16 21 23 22 22 20 21 21 21 19 18 19 18 17 17 16
10 11 11 9 10 8 8 9 9 9 6 5 6 4 2 3 2 4 7 8 9 7 8 12 13 15 17 15 19 23 24 23 20 20 22 23 21 22 21 20 18 18 17
11 11 11 10 10 8 8 8 7 7 6 6 4 4 2 3 3 2 5 6 8 9 9 7 11 14 16 16 19 21 24 25 22 24 23 22 23 24 22 21 21 20 20
12 11 11 11 11 9 10 9 11 10 7 6 5 2 7 5 3 3 3 4 4 7 7 8 10 13 16 16 17 21 30 29 26 25 24 24 26 26 25 24 24 24 24
7 9 11 11 11 10 10 9 10 10 8 5 6 5 5 4 7 5 4 8 9 6 5 6 7 10 14 16 17 21 28 30 30 28 27 24 24 24 25 26 25 26 25
7 12 13 12 10 10 10 9 9 8 7 7 8 7 6 8 6 8 5 6 6 2 3 3 5 10 12 15 17 24 27 31 32 32 31 29 27 25 25 26 26 26 26
11 11 13 12 12 11 11 10 7 6 5 6 8 7 7 7 4 6 7 7 4 2 2 4 4 6 13 17 21 27 20 30 32 33 33 33 31 30 28 28 27 27 27
9 11 13 13 12 12 12 11 7 7 7 7 8 9 7 5 5 2 5 9 10 4 7 4 4 11 15 16 20 19 20 20 31 30 33 34 34 33 32 32 31 30 29
11 12 14 13 12 11 12 11 8 8 8 6 6 9 8 5 6 5 4 4 5 4 5 7 8 5 12 14 17 17 18 21 19 24 29 33 32 33 33 33 33 33 32
12 13 15 14 13 12 11 11 9 10 10 9 7 9 9 8 6 7 5 5 5 4 7 3 6 7 6 8 8 15 16 15 15 26 27 26 30 33 32 31 31 29 26
12 13 12 13 13 12 12 11 11 10 12 11 10 10 10 7 10 8 7 9 8 7 6 8 4 4 4 7 8 9 6 12 14 20 24 23 24 24 24 23 21 21 20
12 11 11 12 13 12 12 12 12 12 12 12 11 11 11 10 10 8 9 9 8 6 8 6 5 1 2 2 3 3 4 4 8 6 9 5 5 6 7 5 4 4 5
11 11 12 12 12 11 12 12 12 11 11 11 11 12 11 12 12 11 10 12 10 9 10 8 5 3 3 2 3 5 5 4 3 8 15 15 19 20 18 16 17 16 16
9 11 11 11 12 11 9 11 10 10 10 10 10 10 10 10 12 11 7 8 8 7 6 7 6 3 4 3 8 5 8 5 3 4 5 6 8 10 10 15 17 16 16
11 7 10 10 9 6 9 6 11 10 10 10 9 9 8 10 10 11 12 9 9 8 8 4 4 5 7 6 4 6 7 3 3 4 4 3 4 5 8 13 17 17 17
15 14 13 9 9 9 12 6 5 8 9 9 8 8 7 5 8 6 9 12 12 10 4 4 7 6 6 5 5 4 5 3 3 2 4 3 2 6 9 14 16 16 15
14 13 14 12 9 10 14 3 5 4 6 6 5 3 4 5 3 6 8 6 7 8 5 3 4 4 3 2 2 1 3 6 4 3 1 3 2 3 6 11 12 14 13
14 12 11 17 12 13 18 16 9 7 8 9 8 8 4 4 2 3 10 9 7 8 14 20 19 18 17 14 4 2 2 3 2 2 2 3 3 4 2 3 8 9 9
10 7 11 11 17 12 18 18 14 7 10 6 8 9 14 4 2 7 8 9 9 5 6 5 5 10 13 13 17 6 2 2 3 2 1 3 4 4 3 1 3 7 7
Wind_Direction
180 160 166 166 165 163 173 182 184 173 164 171 181 183 190 190 191 189 206 198 194 178 175 182 182 179 170 170 173 166 161 163 159 163 161 157 159 152 147 145 143 143 144
178 174 168 175 173 174 171 183 188 179 175 163 170 185 196 204 208 199 209 204 196 188 186 185 187 184 176 178 169 162 166 165 164 171 172 162 159 153 150 146 149 157 154
179 174 174 179 185 177 167 158 154 146 150 149 174 181 192 213 220 215 213 209 197 194 200 194 184 184 182 182 174 171 168 164 166 178 178 168 163 158 156 155 167 165 164
181 174 180 181 175 169 174 172 175 179 171 176 164 186 190 204 220 207 203 197 191 197 210 212 188 184 184 187 184 178 174 166 176 182 183 177 174 167 162 165 175 177 175
182 176 181 174 167 176 183 180 185 193 192 189 192 178 188 205 206 201 206 201 193 191 195 199 188 187 184 190 183 181 178 175 175 189 188 182 181 177 172 177 182 184 186
182 177 173 167 166 176 185 182 188 187 185 195 204 196 199 204 206 211 209 203 193 186 182 177 185 190 190 190 185 185 185 182 186 195 190 186 186 189 185 186 190 192 196
184 179 178 168 175 187 186 181 179 185 186 178 155 202 199 210 217 220 200 193 185 185 177 169 177 185 196 190 187 185 190 192 194 198 198 192 198 203 193 199 201 202 204
184 180 177 179 181 184 182 184 180 167 181 175 151 114 223 197 216 208 196 188 188 177 181 175 176 180 186 190 189 190 198 198 199 204 202 196 203 207 205 205 209 213 214
183 183 180 177 179 186 188 185 192 186 183 185 187 145 167 217 174 196 203 199 183 180 187 179 183 182 189 186 186 196 204 209 210 208 206 202 200 209 208 209 214 220 223
182 185 180 175 182 189 194 186 186 204 185 181 198 208 146 140 187 223 200 195 177 184 182 183 186 192 194 193 189 194 207 215 215 205 209 207 208 209 214 214 217 223 227
190 187 184 180 182 191 200 194 201 199 198 178 183 161 214 213 266 186 200 160 181 180 186 185 188 194 195 196 196 202 210 214 220 215 215 215 213 211 211 213 217 222 227
197 195 191 190 189 187 184 188 195 196 193 179 190 181 188 196 218 214 233 180 177 168 176 187 188 198 197 196 202 207 213 217 221 223 225 226 220 216 217 217 219 226 231
196 205 199 194 193 186 179 175 186 188 184 192 202 207 215 222 223 222 205 177 172 113 151 185 197 198 201 202 207 210 216 220 223 226 229 230 231 224 220 221 223 228 233
199 190 199 202 194 181 180 184 184 181 178 200 209 208 219 217 189 193 180 166 141 129 130 154 195 208 209 203 209 213 212 222 226 228 232 234 235 234 230 226 226 229 234
191 180 191 194 191 189 178 175 176 174 188 203 218 211 208 197 180 199 189 179 172 144 194 187 180 211 213 208 213 201 208 220 226 229 233 236 235 235 236 237 236 236 237
186 183 189 190 186 185 175 175 176 172 186 207 204 202 203 185 188 174 179 166 144 150 189 202 210 197 202 211 210 194 202 214 231 238 241 240 238 236 237 239 240 242 244
195 196 193 192 187 181 176 177 178 173 188 202 194 194 198 185 190 187 176 174 183 169 203 195 215 210 192 194 191 194 188 199 223 240 245 244 244 242 242 244 244 244 247
196 198 196 193 183 182 175 181 179 182 194 199 202 198 201 186 195 191 185 195 199 194 204 224 190 195 182 197 184 177 178 206 216 225 235 241 246 246 245 248 255 254 253
190 190 189 194 189 180 178 192 189 187 194 198 203 203 206 197 200 204 203 205 206 207 212 219 218 149 175 152 157 158 170 190 214 236 201 193 195 216 218 205 178 165 151
188 184 189 189 192 185 184 191 186 191 198 202 202 206 207 202 206 203 201 207 206 205 201 206 195 164 173 171 175 202 227 209 144 84 80 97 94 87 89 103 103 105 106
202 189 182 180 180 180 185 182 184 191 196 199 202 206 209 209 207 200 196 197 200 206 209 212 202 152 174 164 208 197 219 208 151 129 119 117 99 93 92 85 93 97 97
349 199 175 178 154 95 19 184 178 189 194 195 199 202 202 198 203 201 203 198 202 202 199 187 188 202 193 194 172 193 200 162 170 157 119 99 112 95 97 93 101 100 98
11 26 30 52 56 33 6 356 223 181 186 191 189 196 195 178 190 162 100 97 72 54 51 202 201 198 192 191 157 181 179 165 148 124 111 96 61 96 91 102 106 105 100
25 22 32 32 34 23 2 20 344 113 101 83 69 73 150 142 95 145 146 107 78 53 26 32 61 70 50 17 37 172 151 103 80 61 52 117 143 92 100 101 103 102 99
35 24 11 49 27 29 21 35 68 59 71 67 56 37 17 117 86 173 145 127 102 88 73 82 81 74 66 56 54 117 132 129 127 141 36 109 147 111 81 94 104 87 89
15 24 31 42 41 23 32 52 62 72 68 51 48 42 25 355 202 132 140 143 130 119 107 77 51 50 49 48 45 39 14 136 123 122 154 104 135 142 134 131 114 93 99